Location: Caltech
(34.1382°N, 118.1253°W)
Time: 03:38:27
(UTC-07:00)

KITSAT 1 - Visible Passes

Search period start: 30 March 2015 00:00
Search period end: 09 April 2015 00:00
Orbit: 1309 x 1321 km, 66.1° (Epoch: 28 March)

Date Brightness Start Highest point End Pass type
(mag) Time Alt. Az. Time Alt. Az. Time Alt. Az.
30 Mar 11.6 03:00:48 27° ESE 03:00:51 27° ESE 03:07:23 10° NE visible
30 Mar 10.3 04:52:49 39° WSW 04:55:50 58° WNW 05:03:46 10° NNE visible
31 Mar 11.0 03:16:50 42° ESE 03:16:50 42° ESE 03:24:11 10° NE visible
31 Mar 10.8 05:08:50 29° W 05:12:09 40° NW 05:19:36 10° NNE visible
01 Apr 10.4 03:32:47 64° ESE 03:32:47 64° ESE 03:40:37 10° NNE visible
01 Apr 11.2 05:24:47 20° W 05:28:39 27° NW 05:35:14 10° N visible
02 Apr 12.3 01:56:41 14° E 01:56:41 14° E 01:58:36 10° ENE visible
02 Apr 10.0 03:48:40 87° WNW 03:48:40 87° WNW 03:56:48 10° NNE visible
02 Apr 11.7 05:40:40 12° W 05:45:21 19° NW 05:50:38 10° N visible
03 Apr 11.9 02:12:31 22° ENE 02:12:31 22° ENE 02:16:18 10° NE visible
03 Apr 10.2 04:04:30 59° WNW 04:04:50 60° WNW 04:12:48 10° NNE visible
03 Apr 11.9 05:58:30 10° WNW 06:02:15 13° NW 06:05:33 10° N visible
04 Apr 11.4 02:28:17 33° ENE 02:28:17 33° ENE 02:33:09 10° NE visible
04 Apr 10.7 04:20:16 40° WNW 04:21:08 41° NW 04:28:37 10° NNE visible
05 Apr 11.0 02:44:01 46° ENE 02:44:01 46° ENE 02:49:36 10° NE visible
05 Apr 11.2 04:35:59 27° WNW 04:37:38 28° NW 04:44:17 10° N visible
06 Apr 10.6 02:59:41 57° NNE 02:59:41 57° NNE 03:05:48 10° NNE visible
06 Apr 11.6 04:51:39 17° WNW 04:54:18 20° NW 04:59:43 10° N visible
07 Apr 12.2 01:23:21 16° ENE 01:23:21 16° ENE 01:25:14 10° NE visible
07 Apr 10.6 03:15:19 53° NNW 03:15:19 53° NNW 03:21:49 10° NNE visible
07 Apr 12.0 05:07:17 10° WNW 05:11:11 13° NW 05:14:40 10° N visible
08 Apr 11.9 01:38:57 24° ENE 01:38:57 24° ENE 01:42:07 10° NE visible
08 Apr 10.9 03:30:55 41° NW 03:30:55 41° NW 03:37:39 10° NNE visible
